Fairfield, IL

3:58 PM CDT on September 22, 2017 (GMT -0500)
Fairfield Municipal

Weather History for KFWC - April, 2014

Change the Weather History Date:

Monday, April 14, 2014

  Actual Average (KEVV) Record (KEVV)
Temperature  
Mean Temperature 50 °F -  
Max Temperature 64 °F 66 °F 86 °F (2010)
Min Temperature 37 °F 45 °F 24 °F (1950)
Degree Days  
Heating Degree Days 14    
Moisture  
Dew Point 48 °F    
Average Humidity 90    
Maximum Humidity 100    
Minimum Humidity 82    
Precipitation  
Precipitation 0.25 in - - ()
Sea Level Pressure  
Sea Level Pressure 29.78 in    
Wind  
Wind Speed 12 mph (WNW)    
Max Wind Speed 20 mph    
Max Gust Speed 28 mph    
Visibility 8 miles    
Events Rain    
Averages and records for this station are not official NWS values.
T = Trace of Precipitation, MM = Missing Value Source: NWS Daily Summary

Daily Weather History Graph

Daily Weather History Graph

Search for Another Location

Airport or City:

Trip Planner

Search our weather history database for the weather conditions in past years. The results will help you decide how hot, cold, wet, or windy it might be!

Date:

Astronomy

Apr. 14, 2014 Rise Set
Actual Time 6:19 AM CDT 7:29 PM CDT
Civil Twilight 5:51 AM CDT 7:56 PM CDT
Nautical Twilight 5:19 AM CDT 8:29 PM CDT
Astronomical Twilight 4:45 AM CDT 9:03 PM CDT
Moon 7:07 PM CDT (4/14) 5:50 AM CDT (4/14)
Length of Visible Light 14h 04m
Length of Day
13h 09m
Full, 100% of the Moon is Illuminated
Apr 14
Full
Apr 15
Full
Apr 22
Last Quarter
Apr 29
New
May 6
First Quarter

Hourly Weather History & Observations

Time (CDT) Temp. Windchill Dew Point Humidity Pressure Visibility Wind Dir Wind Speed Gust Speed Precip Events Conditions
12:15 AM 64.4 °F - 62.6 °F 94% 29.62 in 10.0 mi South 15.0 mph 23.0 mph 0.04 in Rain Rain
12:35 AM 62.6 °F - 60.8 °F 94% 29.63 in 10.0 mi South 17.3 mph - 0.13 in Rain Heavy Rain
12:55 AM 62.6 °F - 60.8 °F 94% 29.62 in 10.0 mi South 13.8 mph 24.2 mph 0.16 in Rain Light Rain
1:15 AM 60.8 °F - 59.0 °F 94% 29.62 in 10.0 mi South 11.5 mph - N/A   Mostly Cloudy
1:35 AM 60.8 °F - 59.0 °F 94% 29.62 in 10.0 mi South 15.0 mph 18.4 mph N/A   Overcast
1:55 AM 60.8 °F - 59.0 °F 94% 29.59 in 10.0 mi South 19.6 mph 27.6 mph 0.01 in Rain Rain
2:15 AM 60.8 °F - 59.0 °F 94% 29.58 in 10.0 mi South 19.6 mph 24.2 mph N/A   Mostly Cloudy
2:35 AM 60.8 °F - 57.2 °F 88% 29.59 in 10.0 mi South 16.1 mph 21.9 mph N/A   Mostly Cloudy
2:55 AM 60.8 °F - 57.2 °F 88% 29.58 in 10.0 mi South 19.6 mph - N/A   Mostly Cloudy
3:15 AM 60.8 °F - 57.2 °F 88% 29.59 in 10.0 mi South 17.3 mph 23.0 mph N/A   Scattered Clouds
3:35 AM 60.8 °F - 57.2 °F 88% 29.59 in 10.0 mi South 18.4 mph 25.3 mph N/A   Mostly Cloudy
3:55 AM 60.8 °F - 57.2 °F 88% 29.62 in 10.0 mi SSW 12.7 mph 20.7 mph N/A   Overcast
4:15 AM 60.8 °F - 57.2 °F 88% 29.62 in 10.0 mi SSW 10.4 mph 17.3 mph N/A   Overcast
4:35 AM 60.8 °F - 57.2 °F 88% 29.62 in 10.0 mi SSW 8.1 mph - N/A   Overcast
4:55 AM 60.8 °F - 57.2 °F 88% 29.62 in 10.0 mi SSW 8.1 mph - N/A   Mostly Cloudy
5:15 AM 60.8 °F - 57.2 °F 88% 29.63 in 10.0 mi SW 5.8 mph - N/A   Mostly Cloudy
5:35 AM 60.8 °F - 57.2 °F 88% 29.63 in 10.0 mi SW 5.8 mph - N/A   Mostly Cloudy
5:55 AM 60.8 °F - 57.2 °F 88% 29.63 in 10.0 mi SW 8.1 mph - N/A   Mostly Cloudy
6:15 AM 60.8 °F - 59.0 °F 94% 29.64 in 10.0 mi SW 8.1 mph - N/A   Overcast
6:35 AM 60.8 °F - 59.0 °F 94% 29.64 in 10.0 mi SW 6.9 mph - N/A   Overcast
6:55 AM 60.8 °F - 59.0 °F 94% 29.65 in 10.0 mi SW 6.9 mph - N/A   Overcast
7:15 AM 60.8 °F - 59.0 °F 94% 29.66 in 10.0 mi SW 6.9 mph - N/A   Overcast
7:35 AM 60.8 °F - 59.0 °F 94% 29.67 in 10.0 mi SW 9.2 mph - N/A   Overcast
7:55 AM 62.6 °F - 60.8 °F 94% 29.69 in 10.0 mi SW 9.2 mph - N/A   Overcast
8:15 AM 62.6 °F - 59.0 °F 88% 29.70 in 10.0 mi SW 8.1 mph - N/A   Overcast
8:35 AM 62.6 °F - 59.0 °F 88% 29.71 in 10.0 mi SW 6.9 mph - N/A   Overcast
8:55 AM 60.8 °F - 55.4 °F 82% 29.72 in 10.0 mi WNW 13.8 mph 23.0 mph N/A   Overcast
9:15 AM 53.6 °F - 51.8 °F 94% 29.74 in 5.0 mi NW 6.9 mph 17.3 mph N/A   Drizzle
9:35 AM 53.6 °F - 51.8 °F 94% 29.75 in 7.0 mi NW 9.2 mph - N/A   Light Drizzle
9:55 AM 53.6 °F - 51.8 °F 94% 29.76 in 10.0 mi WNW 10.4 mph 16.1 mph N/A   Overcast
10:15 AM 53.6 °F - 51.8 °F 94% 29.78 in 7.0 mi West 8.1 mph 19.6 mph N/A   Overcast
10:35 AM 53.6 °F - 50.0 °F 88% 29.80 in 10.0 mi West 5.8 mph - N/A   Overcast
10:55 AM 53.6 °F - 50.0 °F 88% 29.81 in 10.0 mi WNW 8.1 mph - N/A   Overcast
11:15 AM 51.8 °F - 48.2 °F 88% 29.81 in 5.0 mi West 8.1 mph - N/A Rain Light Rain
11:35 AM 51.8 °F - 48.2 °F 88% 29.81 in 10.0 mi NW 8.1 mph - N/A   Overcast
11:55 AM 51.8 °F - 48.2 °F 88% 29.81 in 10.0 mi NW 9.2 mph - N/A   Overcast
12:35 PM 50.0 °F - 46.4 °F 87% 29.82 in 3.0 mi NW 5.8 mph - N/A   Drizzle
12:55 PM 48.2 °F - 46.4 °F 93% 29.83 in 5.0 mi NW 6.9 mph - N/A   Light Drizzle
1:15 PM 50.0 °F - 46.4 °F 87% 29.82 in 5.0 mi WNW 5.8 mph - N/A   Overcast
1:35 PM 50.0 °F - 46.4 °F 87% 29.83 in 10.0 mi West 5.8 mph - N/A   Overcast
1:55 PM 48.2 °F - 44.6 °F 87% 29.83 in 10.0 mi NW 8.1 mph - N/A   Overcast
2:15 PM 48.2 °F - 44.6 °F 87% 29.83 in 1.8 mi NW 6.9 mph - N/A   Heavy Drizzle
2:35 PM 48.2 °F - 46.4 °F 93% 29.83 in 1.8 mi NW 8.1 mph - N/A   Drizzle
2:55 PM 46.4 °F 42.4 °F 44.6 °F 93% 29.83 in 1.8 mi NW 8.1 mph - N/A Rain Light Rain
3:15 PM 46.4 °F 42.9 °F 44.6 °F 93% 29.83 in 5.0 mi NW 6.9 mph - N/A   Light Drizzle
3:35 PM 46.4 °F 41.9 °F 44.6 °F 93% 29.83 in 2.0 mi NW 9.2 mph - N/A   Drizzle
3:55 PM 44.6 °F 39.7 °F 44.6 °F 100% 29.83 in 2.5 mi NW 9.2 mph - N/A   Light Drizzle
4:15 PM 44.6 °F 41.4 °F 42.8 °F 93% 29.85 in 5.0 mi NW 5.8 mph 16.1 mph N/A   Light Drizzle
4:35 PM 44.6 °F 38.4 °F 42.8 °F 93% 29.87 in 2.0 mi NW 12.7 mph 18.4 mph N/A Rain Rain
4:55 PM 44.6 °F 40.7 °F 42.8 °F 93% 29.86 in 10.0 mi NW 6.9 mph - 0.01 in Rain Rain
5:15 PM 44.6 °F 40.7 °F 42.8 °F 93% 29.86 in 7.0 mi NW 6.9 mph - 0.01 in Rain Rain
5:35 PM 44.6 °F 39.7 °F 42.8 °F 93% 29.87 in 3.0 mi NW 9.2 mph - 0.01 in   Heavy Drizzle
5:55 PM 44.6 °F 40.7 °F 42.8 °F 93% 29.87 in 5.0 mi NW 6.9 mph - 0.03 in Rain Rain
6:15 PM 42.8 °F 37.0 °F 41.0 °F 93% 29.87 in 4.0 mi NW 10.4 mph 16.1 mph N/A   Drizzle
6:35 PM 42.8 °F 35.4 °F 41.0 °F 93% 29.89 in 4.0 mi NNW 15.0 mph 21.9 mph 0.01 in   Drizzle
6:55 PM 42.8 °F 38.0 °F 39.2 °F 87% 29.90 in 3.0 mi NW 8.1 mph - 0.01 in   Heavy Drizzle
7:15 PM 42.8 °F 35.8 °F 39.2 °F 87% 29.90 in 5.0 mi NW 13.8 mph 21.9 mph 0.01 in Rain Light Rain
7:35 PM 41.0 °F 34.7 °F 39.2 °F 93% 29.92 in 5.0 mi NW 10.4 mph 17.3 mph 0.02 in   Drizzle
7:55 PM 39.2 °F 32.0 °F 37.4 °F 93% 29.93 in 4.0 mi NW 11.5 mph 21.9 mph 0.02 in   Heavy Drizzle
8:15 PM 39.2 °F 31.6 °F 37.4 °F 93% 29.94 in 10.0 mi NNW 12.7 mph 21.9 mph N/A   Overcast
8:35 PM 39.2 °F 33.6 °F 35.6 °F 87% 29.94 in 7.0 mi NNW 8.1 mph 19.6 mph 0.01 in Rain Rain
8:55 PM 39.2 °F 31.2 °F 35.6 °F 87% 29.94 in 10.0 mi NNW 13.8 mph 18.4 mph 0.01 in Rain Light Rain
9:15 PM 39.2 °F 33.0 °F 35.6 °F 87% 29.96 in 10.0 mi NNW 9.2 mph 20.7 mph N/A   Overcast
9:35 PM 39.2 °F 33.0 °F 35.6 °F 87% 29.99 in 10.0 mi NNW 9.2 mph 23.0 mph N/A   Overcast
9:55 PM 37.4 °F 30.8 °F 35.6 °F 93% 30.00 in 10.0 mi NNW 9.2 mph 18.4 mph N/A   Overcast
10:15 PM 37.4 °F 31.4 °F 33.8 °F 87% 30.01 in 10.0 mi NNW 8.1 mph 16.1 mph N/A   Overcast
10:35 PM 37.4 °F 30.8 °F 33.8 °F 87% 30.01 in 10.0 mi NNW 9.2 mph 18.4 mph N/A   Overcast
10:55 PM 37.4 °F 30.3 °F 33.8 °F 87% 30.01 in 10.0 mi NNW 10.4 mph 21.9 mph N/A   Overcast
11:15 PM 37.4 °F 29.8 °F 33.8 °F 87% 30.01 in 10.0 mi NNW 11.5 mph 20.7 mph N/A   Overcast
11:35 PM 37.4 °F 31.4 °F 33.8 °F 87% 30.02 in 4.0 mi NNW 8.1 mph 17.3 mph N/A Rain Rain
11:55 PM 37.4 °F 29.8 °F 33.8 °F 87% 30.02 in 10.0 mi NNW 11.5 mph - N/A   Light Drizzle